Regional Weather Roundup
Issued by NWS

Home | Current Version | Previous Version | Graphics & Text | Print | Product List | Glossary On
Versions: 1 2 3 4 5 6 7 8 9 10 11 12 13 14 15 16 17 18 19 20 21 22 23 24 25 26 27 28 29 30 31 32 33 34 35 36 37 38 39 40 41 42 43 44 45 46 47 48 49 50
000
ASUS44 KMEG 051810
RWRTN
TENNESSEE HOURLY STATE WEATHER ROUNDUP
NATIONAL WEATHER SERVICE MEMPHIS TN
100 PM CDT THU MAY 05 2016

TNZ002-004-019-021-049-052-054-088>092-051900-
WEST TENNESSEE

CITY           SKY/WX    TMP DP  RH WIND       PRES   REMARKS
MEMPHIS INTL   MOSUNNY   70  36  28 N17G24    29.96F
NWS MEMPHIS      N/A     68 N/A N/A MISG        N/A
JACKSON        SUNNY     67  40  37 N16       29.93F
DYERSBURG      SUNNY     64  39  39 N20G29    29.96S
UNION CITY     MOSUNNY   63  41  45 N15       29.94F
LEXINGTON      MOSUNNY   64  37  36 NW12      29.90S
$$

TNZ008-025-027-028-033-062-065-066-051900-
NORTH MIDDLE TENNESSEE

CITY           SKY/WX    TMP DP  RH WIND       PRES   REMARKS
NASHVILLE      PTSUNNY   55  37  50 N16G28    29.91R
CLARKSVILLE    CLOUDY    53  39  59 N18       29.94R
SMYRNA         CLOUDY    55  39  54 N20G25    29.91R
COOKEVILLE     PTSUNNY   50  45  81 N13       29.85R
CROSSVILLE     PTSUNNY   47  41  80 NW16G23   29.82S
$$

TNZ061-075-076-078-094-096-097-051900-
SOUTH MIDDLE TENNESSEE

CITY           SKY/WX    TMP DP  RH WIND       PRES   REMARKS
TULLAHOMA      MOSUNNY   57  39  51 NW17      29.84S
WINCHESTER     PTSUNNY   59  39  47 NW14      29.83R
MCMINNVILLE    PTSUNNY   52  43  71 N21       29.86R
COLUMBIA       MOSUNNY   63  43  48 N16       29.86R
SHELBYVILLE    PTSUNNY   61  45  55 NW16      29.86R
$$

TNZ017-018-042-046-047-051900-
NORTHEAST TENNESSEE

CITY           SKY/WX    TMP DP  RH WIND       PRES   REMARKS
TRI CITIES     PTSUNNY   54  37  52 NW14G20   29.73F
$$

TNZ012-013-036-069-073-074-051900-
CENTRAL EAST TENNESSEE

CITY           SKY/WX    TMP DP  RH WIND       PRES   REMARKS
KNOXVILLE      PTSUNNY   55  44  66 W8        29.77F
OAK RIDGE      PTSUNNY   54  46  74 VRB3      29.79S
GATLINBURG     CLOUDY    52  43  71 W6        29.77S
MORRISTOWN     PTCLDY    48  46  93 NW8       29.76F
$$

TNZ083-085-099-051900-
SOUTHEAST TENNESSEE

CITY           SKY/WX    TMP DP  RH WIND       PRES   REMARKS
CHATTANOOGA    CLOUDY    60  42  51 NW12      29.78S
$$

SKY/WX REPORTED AS FAIR MEANS FEW OR NO CLOUDS BELOW
12 THOUSAND FEET.




USA.gov is the U.S. government's official web portal to all federal, state and local government web resources and services.